owner,sensor,date,latitude,longitude,vertical_datum,wind_speed,wind_to_direction,wind_speed_of_gust,qcFlag 
TCOON,ioos:station:TCOON:068:1,2014-08-01T00:00:00Z,27.2970,-97.4049,0.0,8.3,143.0,11.1,'11111222,11111222,11111222' 
TCOON,ioos:station:TCOON:068:1,2014-08-01T00:06:00Z,27.2970,-97.4049,0.0,9.1,142.0,11.2,'11111222,11111222,11111222' 
TCOON,ioos:station:TCOON:068:1,2014-08-01T00:12:00Z,27.2970,-97.4049,0.0,9.1,142.0,11.2,'1111122,1111122,1111122' 
TCOON,ioos:station:TCOON:068:1,2014-08-01T00:18:00Z,27.2970,-97.4049,0.0,8.7,142.0,10.6,'11111222,11111222,11111222' 
TCOON,ioos:station:TCOON:068:1,2014-08-01T00:24:00Z,27.2970,-97.4049,0.0,8.9,140.0,11.9,'11111222,11111222,11111222' 
TCOON,ioos:station:TCOON:068:1,2014-08-01T00:30:00Z,27.2970,-97.4049,0.0,8.2,141.0,11.5,'11111222,11111222,11111222' 
TCOON,ioos:station:TCOON:068:1,2014-08-01T00:36:00Z,27.2970,-97.4049,0.0,8.9,142.0,11.1,'11111222,11111222,11111222' 
TCOON,ioos:station:TCOON:068:1,2014-08-01T00:42:00Z,27.2970,-97.4049,0.0,8.3,140.0,11.1,'11111222,11111222,11111222' 
TCOON,ioos:station:TCOON:068:1,2014-08-01T00:48:00Z,27.2970,-97.4049,0.0,9.0,139.0,11.0,'11111222,11111222,11111222' 
TCOON,ioos:station:TCOON:068:1,2014-08-01T00:54:00Z,27.2970,-97.4049,0.0,7.6,141.0,9.9,'11111222,11111222,11111222' 
TCOON,ioos:station:TCOON:068:1,2014-08-01T01:00:00Z,27.2970,-97.4049,0.0,7.6,143.0,10.8,'11111222,11111222,11111222' 
TCOON,ioos:station:TCOON:068:1,2014-08-01T01:06:00Z,27.2970,-97.4049,0.0,7.9,142.0,11.6,'11111222,11111222,11111222' 
TCOON,ioos:station:TCOON:068:1,2014-08-01T01:12:00Z,27.2970,-97.4049,0.0,7.9,142.0,11.6,'1111122,1111122,1111122' 
TCOON,ioos:station:TCOON:068:1,2014-08-01T01:18:00Z,27.2970,-97.4049,0.0,7.9,144.0,10.5,'11111222,11111222,11111222' 
TCOON,ioos:station:TCOON:068:1,2014-08-01T01:24:00Z,27.2970,-97.4049,0.0,8.3,145.0,10.2,'11111222,11111222,11111222' 
TCOON,ioos:station:TCOON:068:1,2014-08-01T01:30:00Z,27.2970,-97.4049,0.0,7.7,146.0,10.3,'11111222,11111222,11111222' 
TCOON,ioos:station:TCOON:068:1,2014-08-01T01:36:00Z,27.2970,-97.4049,0.0,7.4,146.0,9.5,'11111222,11111222,11111222' 
TCOON,ioos:station:TCOON:068:1,2014-08-01T01:42:00Z,27.2970,-97.4049,0.0,7.7,146.0,9.2,'11111222,11111222,11111222' 
TCOON,ioos:station:TCOON:068:1,2014-08-01T01:48:00Z,27.2970,-97.4049,0.0,7.3,145.0,9.4,'11111222,11111222,11111222' 
TCOON,ioos:station:TCOON:068:1,2014-08-01T01:54:00Z,27.2970,-97.4049,0.0,7.8,148.0,9.7,'11111222,11111222,11111222' 
TCOON,ioos:station:TCOON:068:1,2014-08-01T02:00:00Z,27.2970,-97.4049,0.0,7.3,147.0,9.8,'11111222,11111222,11111222' 
TCOON,ioos:station:TCOON:068:1,2014-08-01T02:06:00Z,27.2970,-97.4049,0.0,7.4,148.0,9.5,'11111222,11111222,11111222' 
TCOON,ioos:station:TCOON:068:1,2014-08-01T02:12:00Z,27.2970,-97.4049,0.0,7.4,148.0,9.5,'1111122,1111122,1111122' 
TCOON,ioos:station:TCOON:068:1,2014-08-01T02:18:00Z,27.2970,-97.4049,0.0,7.2,149.0,9.4,'11111222,11111222,11111222' 
TCOON,ioos:station:TCOON:068:1,2014-08-01T02:24:00Z,27.2970,-97.4049,0.0,7.8,151.0,9.4,'11111222,11111222,11111222' 
TCOON,ioos:station:TCOON:068:1,2014-08-01T02:30:00Z,27.2970,-97.4049,0.0,6.4,150.0,9.6,'11111222,11111222,11111222' 
TCOON,ioos:station:TCOON:068:1,2014-08-01T02:36:00Z,27.2970,-97.4049,0.0,6.8,151.0,9.1,'11111222,11111222,11111222' 
TCOON,ioos:station:TCOON:068:1,2014-08-01T02:42:00Z,27.2970,-97.4049,0.0,7.4,150.0,10.0,'11111222,11111222,11111222' 
TCOON,ioos:station:TCOON:068:1,2014-08-01T02:48:00Z,27.2970,-97.4049,0.0,6.7,151.0,8.9,'11111222,11111222,11111222' 
TCOON,ioos:station:TCOON:068:1,2014-08-01T02:54:00Z,27.2970,-97.4049,0.0,6.5,150.0,9.2,'11111222,11111222,11111222' 
TCOON,ioos:station:TCOON:068:1,2014-08-01T03:00:00Z,27.2970,-97.4049,0.0,7.1,147.0,8.7,'11111222,11111222,11111222' 
TCOON,ioos:station:TCOON:068:1,2014-08-01T03:06:00Z,27.2970,-97.4049,0.0,7.3,148.0,8.7,'11111222,11111222,11111222' 
TCOON,ioos:station:TCOON:068:1,2014-08-01T03:12:00Z,27.2970,-97.4049,0.0,7.3,148.0,8.7,'1111122,1111122,1111122' 
TCOON,ioos:station:TCOON:068:1,2014-08-01T03:18:00Z,27.2970,-97.4049,0.0,7.1,152.0,8.8,'11111222,11111222,11111222' 
TCOON,ioos:station:TCOON:068:1,2014-08-01T03:24:00Z,27.2970,-97.4049,0.0,7.1,155.0,9.0,'11111222,11111222,11111222' 
TCOON,ioos:station:TCOON:068:1,2014-08-01T03:30:00Z,27.2970,-97.4049,0.0,7.2,152.0,9.0,'11111222,11111222,11111222' 
TCOON,ioos:station:TCOON:068:1,2014-08-01T03:36:00Z,27.2970,-97.4049,0.0,7.5,154.0,8.6,'11111222,11111222,11111222' 
TCOON,ioos:station:TCOON:068:1,2014-08-01T03:42:00Z,27.2970,-97.4049,0.0,7.1,151.0,9.4,'11111222,11111222,11111222' 
TCOON,ioos:station:TCOON:068:1,2014-08-01T03:48:00Z,27.2970,-97.4049,0.0,6.7,154.0,8.6,'11111222,11111222,11111222' 
TCOON,ioos:station:TCOON:068:1,2014-08-01T03:54:00Z,27.2970,-97.4049,0.0,6.1,151.0,7.7,'11111222,11111222,11111222' 
TCOON,ioos:station:TCOON:068:1,2014-08-01T04:00:00Z,27.2970,-97.4049,0.0,6.3,152.0,8.1,'11111222,11111222,11111222' 
TCOON,ioos:station:TCOON:068:1,2014-08-01T04:06:00Z,27.2970,-97.4049,0.0,6.6,151.0,8.1,'11111222,11111222,11111222' 
TCOON,ioos:station:TCOON:068:1,2014-08-01T04:12:00Z,27.2970,-97.4049,0.0,6.6,151.0,8.1,'1111122,1111122,1111122' 
TCOON,ioos:station:TCOON:068:1,2014-08-01T04:18:00Z,27.2970,-97.4049,0.0,6.4,155.0,8.4,'11111222,11111222,11111222' 
TCOON,ioos:station:TCOON:068:1,2014-08-01T04:24:00Z,27.2970,-97.4049,0.0,6.2,155.0,7.6,'11111222,11111222,11111222' 
TCOON,ioos:station:TCOON:068:1,2014-08-01T04:30:00Z,27.2970,-97.4049,0.0,6.2,155.0,8.2,'11111222,11111222,11111222' 
TCOON,ioos:station:TCOON:068:1,2014-08-01T04:36:00Z,27.2970,-97.4049,0.0,7.4,156.0,9.1,'11111222,11111222,11111222' 
TCOON,ioos:station:TCOON:068:1,2014-08-01T04:42:00Z,27.2970,-97.4049,0.0,7.5,155.0,9.0,'11111222,11111222,11111222' 
TCOON,ioos:station:TCOON:068:1,2014-08-01T04:48:00Z,27.2970,-97.4049,0.0,7.6,157.0,8.6,'11111222,11111222,11111222' 
TCOON,ioos:station:TCOON:068:1,2014-08-01T04:54:00Z,27.2970,-97.4049,0.0,7.0,158.0,9.2,'11111222,11111222,11111222' 
TCOON,ioos:station:TCOON:068:1,2014-08-01T05:00:00Z,27.2970,-97.4049,0.0,7.8,160.0,9.4,'11111222,11111222,11111222' 
TCOON,ioos:station:TCOON:068:1,2014-08-01T05:06:00Z,27.2970,-97.4049,0.0,7.8,160.0,10.0,'11111222,11111222,11111222' 
TCOON,ioos:station:TCOON:068:1,2014-08-01T05:12:00Z,27.2970,-97.4049,0.0,7.8,160.0,10.0,'1111122,1111122,1111122' 
TCOON,ioos:station:TCOON:068:1,2014-08-01T05:18:00Z,27.2970,-97.4049,0.0,7.8,158.0,9.5,'11111222,11111222,11111222' 
TCOON,ioos:station:TCOON:068:1,2014-08-01T05:24:00Z,27.2970,-97.4049,0.0,7.6,161.0,9.7,'11111222,11111222,11111222' 
TCOON,ioos:station:TCOON:068:1,2014-08-01T05:30:00Z,27.2970,-97.4049,0.0,7.4,158.0,9.3,'11111222,11111222,11111222' 
TCOON,ioos:station:TCOON:068:1,2014-08-01T05:36:00Z,27.2970,-97.4049,0.0,7.8,158.0,9.1,'11111222,11111222,11111222' 
TCOON,ioos:station:TCOON:068:1,2014-08-01T05:42:00Z,27.2970,-97.4049,0.0,7.4,158.0,9.0,'11111222,11111222,11111222' 
TCOON,ioos:station:TCOON:068:1,2014-08-01T05:48:00Z,27.2970,-97.4049,0.0,6.9,158.0,8.4,'11111222,11111222,11111222' 
TCOON,ioos:station:TCOON:068:1,2014-08-01T05:54:00Z,27.2970,-97.4049,0.0,6.5,158.0,8.2,'11111222,11111222,11111222' 
TCOON,ioos:station:TCOON:068:1,2014-08-01T06:00:00Z,27.2970,-97.4049,0.0,7.2,159.0,9.3,'11111222,11111222,11111222' 
TCOON,ioos:station:TCOON:068:1,2014-08-01T06:06:00Z,27.2970,-97.4049,0.0,7.3,162.0,9.3,'11111222,11111222,11111222' 
TCOON,ioos:station:TCOON:068:1,2014-08-01T06:12:00Z,27.2970,-97.4049,0.0,7.0,160.0,8.8,'11111222,11111222,11111222' 
TCOON,ioos:station:TCOON:068:1,2014-08-01T06:18:00Z,27.2970,-97.4049,0.0,6.9,162.0,8.2,'11111222,11111222,11111222' 
TCOON,ioos:station:TCOON:068:1,2014-08-01T06:24:00Z,27.2970,-97.4049,0.0,7.0,164.0,8.5,'11111222,11111222,11111222' 
TCOON,ioos:station:TCOON:068:1,2014-08-01T06:30:00Z,27.2970,-97.4049,0.0,7.4,165.0,8.5,'11111222,11111222,11111222' 
TCOON,ioos:station:TCOON:068:1,2014-08-01T06:36:00Z,27.2970,-97.4049,0.0,7.1,165.0,8.7,'11111222,11111222,11111222' 
TCOON,ioos:station:TCOON:068:1,2014-08-01T06:42:00Z,27.2970,-97.4049,0.0,7.1,165.0,8.7,'1111122,1111122,1111122' 
TCOON,ioos:station:TCOON:068:1,2014-08-01T06:48:00Z,27.2970,-97.4049,0.0,6.9,162.0,8.3,'11111222,11111222,11111222' 
TCOON,ioos:station:TCOON:068:1,2014-08-01T06:54:00Z,27.2970,-97.4049,0.0,6.7,164.0,8.3,'11111222,11111222,11111222' 
TCOON,ioos:station:TCOON:068:1,2014-08-01T07:00:00Z,27.2970,-97.4049,0.0,7.3,164.0,8.9,'11111222,11111222,11111222' 
TCOON,ioos:station:TCOON:068:1,2014-08-01T07:06:00Z,27.2970,-97.4049,0.0,7.3,164.0,8.9,'1111122,1111122,1111122' 
TCOON,ioos:station:TCOON:068:1,2014-08-01T07:12:00Z,27.2970,-97.4049,0.0,7.7,164.0,9.4,'11111222,11111222,11111222' 
TCOON,ioos:station:TCOON:068:1,2014-08-01T07:18:00Z,27.2970,-97.4049,0.0,7.4,165.0,9.2,'11111222,11111222,11111222' 
TCOON,ioos:station:TCOON:068:1,2014-08-01T07:24:00Z,27.2970,-97.4049,0.0,7.1,166.0,8.4,'11111222,11111222,11111222' 
TCOON,ioos:station:TCOON:068:1,2014-08-01T07:30:00Z,27.2970,-97.4049,0.0,7.1,168.0,8.4,'11111222,11111222,11111222' 
TCOON,ioos:station:TCOON:068:1,2014-08-01T07:36:00Z,27.2970,-97.4049,0.0,7.8,167.0,9.3,'11111222,11111222,11111222' 
TCOON,ioos:station:TCOON:068:1,2014-08-01T07:42:00Z,27.2970,-97.4049,0.0,7.6,166.0,9.1,'11111222,11111222,11111222' 
TCOON,ioos:station:TCOON:068:1,2014-08-01T07:48:00Z,27.2970,-97.4049,0.0,7.1,166.0,9.3,'11111222,11111222,11111222' 
TCOON,ioos:station:TCOON:068:1,2014-08-01T07:54:00Z,27.2970,-97.4049,0.0,7.6,166.0,9.1,'11111222,11111222,11111222' 
TCOON,ioos:station:TCOON:068:1,2014-08-01T08:00:00Z,27.2970,-97.4049,0.0,7.4,165.0,8.7,'11111222,11111222,11111222' 
TCOON,ioos:station:TCOON:068:1,2014-08-01T08:06:00Z,27.2970,-97.4049,0.0,7.6,166.0,9.3,'11111222,11111222,11111222' 
TCOON,ioos:station:TCOON:068:1,2014-08-01T08:12:00Z,27.2970,-97.4049,0.0,7.6,166.0,9.3,'1111122,1111122,1111122' 
TCOON,ioos:station:TCOON:068:1,2014-08-01T08:18:00Z,27.2970,-97.4049,0.0,7.0,171.0,9.2,'11111222,11111222,11111222' 
TCOON,ioos:station:TCOON:068:1,2014-08-01T08:24:00Z,27.2970,-97.4049,0.0,7.4,170.0,9.0,'11111222,11111222,11111222' 
TCOON,ioos:station:TCOON:068:1,2014-08-01T08:30:00Z,27.2970,-97.4049,0.0,7.8,168.0,9.0,'11111222,11111222,11111222' 
TCOON,ioos:station:TCOON:068:1,2014-08-01T08:36:00Z,27.2970,-97.4049,0.0,6.9,171.0,9.2,'11111222,11111222,11111222' 
TCOON,ioos:station:TCOON:068:1,2014-08-01T08:42:00Z,27.2970,-97.4049,0.0,6.5,169.0,8.5,'11111222,11111222,11111222' 
TCOON,ioos:station:TCOON:068:1,2014-08-01T08:48:00Z,27.2970,-97.4049,0.0,7.5,169.0,9.0,'11111222,11111222,11111222' 
TCOON,ioos:station:TCOON:068:1,2014-08-01T08:54:00Z,27.2970,-97.4049,0.0,8.5,168.0,9.4,'11111222,11111222,11111222' 
TCOON,ioos:station:TCOON:068:1,2014-08-01T09:00:00Z,27.2970,-97.4049,0.0,7.6,168.0,9.1,'11111222,11111222,11111222' 
TCOON,ioos:station:TCOON:068:1,2014-08-01T09:06:00Z,27.2970,-97.4049,0.0,7.7,166.0,9.4,'11111222,11111222,11111222' 
TCOON,ioos:station:TCOON:068:1,2014-08-01T09:12:00Z,27.2970,-97.4049,0.0,7.7,166.0,9.4,'1111122,1111122,1111122' 
TCOON,ioos:station:TCOON:068:1,2014-08-01T09:18:00Z,27.2970,-97.4049,0.0,6.8,163.0,8.3,'11111222,11111222,11111222' 
TCOON,ioos:station:TCOON:068:1,2014-08-01T09:24:00Z,27.2970,-97.4049,0.0,6.8,165.0,8.0,'11111222,11111222,11111222' 
TCOON,ioos:station:TCOON:068:1,2014-08-01T09:30:00Z,27.2970,-97.4049,0.0,6.5,167.0,7.9,'11111222,11111222,11111222' 
TCOON,ioos:station:TCOON:068:1,2014-08-01T09:36:00Z,27.2970,-97.4049,0.0,6.8,165.0,7.7,'11111222,11111222,11111222' 
TCOON,ioos:station:TCOON:068:1,2014-08-01T09:42:00Z,27.2970,-97.4049,0.0,6.5,167.0,7.5,'11111222,11111222,11111222' 
TCOON,ioos:station:TCOON:068:1,2014-08-01T09:48:00Z,27.2970,-97.4049,0.0,6.4,165.0,7.8,'11111222,11111222,11111222' 
TCOON,ioos:station:TCOON:068:1,2014-08-01T09:54:00Z,27.2970,-97.4049,0.0,6.0,164.0,7.0,'11111222,11111222,11111222' 
TCOON,ioos:station:TCOON:068:1,2014-08-01T10:00:00Z,27.2970,-97.4049,0.0,6.5,166.0,7.4,'11111222,11111222,11111222' 
TCOON,ioos:station:TCOON:068:1,2014-08-01T10:06:00Z,27.2970,-97.4049,0.0,5.4,167.0,6.7,'11111222,11111222,11111222' 
TCOON,ioos:station:TCOON:068:1,2014-08-01T10:12:00Z,27.2970,-97.4049,0.0,5.4,167.0,6.7,'1111122,1111122,1111122' 
TCOON,ioos:station:TCOON:068:1,2014-08-01T10:18:00Z,27.2970,-97.4049,0.0,6.3,166.0,7.2,'11111222,11111222,11111222' 
TCOON,ioos:station:TCOON:068:1,2014-08-01T10:24:00Z,27.2970,-97.4049,0.0,6.3,164.0,7.6,'11111222,11111222,11111222' 
TCOON,ioos:station:TCOON:068:1,2014-08-01T10:30:00Z,27.2970,-97.4049,0.0,6.7,167.0,7.7,'11111222,11111222,11111222' 
TCOON,ioos:station:TCOON:068:1,2014-08-01T10:36:00Z,27.2970,-97.4049,0.0,6.4,165.0,7.2,'11111222,11111222,11111222' 
TCOON,ioos:station:TCOON:068:1,2014-08-01T10:42:00Z,27.2970,-97.4049,0.0,5.8,162.0,7.2,'11111222,11111222,11111222' 
TCOON,ioos:station:TCOON:068:1,2014-08-01T10:48:00Z,27.2970,-97.4049,0.0,6.3,164.0,7.5,'11111222,11111222,11111222' 
TCOON,ioos:station:TCOON:068:1,2014-08-01T10:54:00Z,27.2970,-97.4049,0.0,5.1,162.0,7.1,'11111222,11111222,11111222' 
TCOON,ioos:station:TCOON:068:1,2014-08-01T11:00:00Z,27.2970,-97.4049,0.0,5.1,160.0,7.1,'11111222,11111222,11111222' 
TCOON,ioos:station:TCOON:068:1,2014-08-01T11:06:00Z,27.2970,-97.4049,0.0,4.8,162.0,6.5,'11111222,11111222,11111222' 
TCOON,ioos:station:TCOON:068:1,2014-08-01T11:12:00Z,27.2970,-97.4049,0.0,4.8,162.0,6.5,'1111122,1111122,1111122' 
TCOON,ioos:station:TCOON:068:1,2014-08-01T11:18:00Z,27.2970,-97.4049,0.0,5.7,164.0,6.4,'11111222,11111222,11111222' 
TCOON,ioos:station:TCOON:068:1,2014-08-01T11:24:00Z,27.2970,-97.4049,0.0,6.0,164.0,7.0,'11111222,11111222,11111222' 
TCOON,ioos:station:TCOON:068:1,2014-08-01T11:30:00Z,27.2970,-97.4049,0.0,5.5,163.0,6.6,'11111222,11111222,11111222' 
TCOON,ioos:station:TCOON:068:1,2014-08-01T11:36:00Z,27.2970,-97.4049,0.0,4.9,163.0,6.9,'11111222,11111222,11111222' 
TCOON,ioos:station:TCOON:068:1,2014-08-01T11:42:00Z,27.2970,-97.4049,0.0,4.8,161.0,5.8,'11111222,11111222,11111222' 
TCOON,ioos:station:TCOON:068:1,2014-08-01T11:48:00Z,27.2970,-97.4049,0.0,5.0,158.0,6.0,'11111222,11111222,11111222' 
TCOON,ioos:station:TCOON:068:1,2014-08-01T11:54:00Z,27.2970,-97.4049,0.0,4.5,153.0,6.2,'11111222,11111222,11111222' 
TCOON,ioos:station:TCOON:068:1,2014-08-01T12:00:00Z,27.2970,-97.4049,0.0,4.9,151.0,6.2,'11111222,11111222,11111222' 
TCOON,ioos:station:TCOON:068:1,2014-08-01T12:06:00Z,27.2970,-97.4049,0.0,4.5,149.0,5.6,'11111222,11111222,11111222' 
TCOON,ioos:station:TCOON:068:1,2014-08-01T12:12:00Z,27.2970,-97.4049,0.0,4.5,149.0,5.6,'1111122,1111122,1111122' 
TCOON,ioos:station:TCOON:068:1,2014-08-01T12:18:00Z,27.2970,-97.4049,0.0,3.9,143.0,5.6,'11111222,11111222,11111222' 
TCOON,ioos:station:TCOON:068:1,2014-08-01T12:24:00Z,27.2970,-97.4049,0.0,4.4,143.0,5.4,'11111222,11111222,11111222' 
TCOON,ioos:station:TCOON:068:1,2014-08-01T12:30:00Z,27.2970,-97.4049,0.0,4.0,146.0,4.9,'11111222,11111222,11111222' 
TCOON,ioos:station:TCOON:068:1,2014-08-01T12:36:00Z,27.2970,-97.4049,0.0,3.5,145.0,4.9,'11111222,11111222,11111222' 
TCOON,ioos:station:TCOON:068:1,2014-08-01T12:42:00Z,27.2970,-97.4049,0.0,3.5,144.0,4.4,'11111222,11111222,11111222' 
TCOON,ioos:station:TCOON:068:1,2014-08-01T12:48:00Z,27.2970,-97.4049,0.0,3.0,150.0,4.3,'11111222,11111222,11111222' 
TCOON,ioos:station:TCOON:068:1,2014-08-01T12:54:00Z,27.2970,-97.4049,0.0,3.2,141.0,3.9,'11111222,11111222,11111222' 
TCOON,ioos:station:TCOON:068:1,2014-08-01T13:00:00Z,27.2970,-97.4049,0.0,3.5,140.0,4.1,'11111222,11111222,11111222' 
TCOON,ioos:station:TCOON:068:1,2014-08-01T13:06:00Z,27.2970,-97.4049,0.0,3.4,138.0,4.1,'11111222,11111222,11111222' 
TCOON,ioos:station:TCOON:068:1,2014-08-01T13:12:00Z,27.2970,-97.4049,0.0,3.4,138.0,4.1,'1111122,1111122,1111122' 
TCOON,ioos:station:TCOON:068:1,2014-08-01T13:18:00Z,27.2970,-97.4049,0.0,3.1,140.0,4.1,'11111222,11111222,11111222' 
TCOON,ioos:station:TCOON:068:1,2014-08-01T13:24:00Z,27.2970,-97.4049,0.0,3.1,142.0,3.7,'11111222,11111222,11111222' 
TCOON,ioos:station:TCOON:068:1,2014-08-01T13:30:00Z,27.2970,-97.4049,0.0,2.8,142.0,3.5,'11111222,11111222,11111222' 
TCOON,ioos:station:TCOON:068:1,2014-08-01T13:36:00Z,27.2970,-97.4049,0.0,2.8,142.0,3.4,'11111222,11111222,11111222' 
TCOON,ioos:station:TCOON:068:1,2014-08-01T13:42:00Z,27.2970,-97.4049,0.0,3.0,136.0,3.5,'11111222,11111222,11111222' 
TCOON,ioos:station:TCOON:068:1,2014-08-01T13:48:00Z,27.2970,-97.4049,0.0,2.9,136.0,3.5,'11111222,11111222,11111222' 
TCOON,ioos:station:TCOON:068:1,2014-08-01T13:54:00Z,27.2970,-97.4049,0.0,2.6,131.0,3.5,'11111222,11111222,11111222' 
TCOON,ioos:station:TCOON:068:1,2014-08-01T14:00:00Z,27.2970,-97.4049,0.0,2.2,137.0,2.9,'11111222,11111222,11111222' 
TCOON,ioos:station:TCOON:068:1,2014-08-01T14:06:00Z,27.2970,-97.4049,0.0,2.0,131.0,2.5,'11111222,11111222,11111222' 
TCOON,ioos:station:TCOON:068:1,2014-08-01T14:12:00Z,27.2970,-97.4049,0.0,2.0,131.0,2.5,'1111122,1111122,1111122' 
TCOON,ioos:station:TCOON:068:1,2014-08-01T14:18:00Z,27.2970,-97.4049,0.0,1.9,118.0,2.7,'11111222,11111222,11111222' 
TCOON,ioos:station:TCOON:068:1,2014-08-01T14:24:00Z,27.2970,-97.4049,0.0,2.4,128.0,2.9,'11111222,11111222,11111222' 
TCOON,ioos:station:TCOON:068:1,2014-08-01T14:30:00Z,27.2970,-97.4049,0.0,1.9,122.0,2.7,'11111222,11111222,11111222' 
TCOON,ioos:station:TCOON:068:1,2014-08-01T14:36:00Z,27.2970,-97.4049,0.0,2.1,108.0,2.8,'11111222,11111222,11111222' 
TCOON,ioos:station:TCOON:068:1,2014-08-01T14:42:00Z,27.2970,-97.4049,0.0,2.2,103.0,2.7,'11111222,11111222,11111222' 
TCOON,ioos:station:TCOON:068:1,2014-08-01T14:48:00Z,27.2970,-97.4049,0.0,2.3,95.0,3.0,'11111222,11111222,11111222' 
TCOON,ioos:station:TCOON:068:1,2014-08-01T14:54:00Z,27.2970,-97.4049,0.0,2.4,111.0,3.1,'11111222,11111222,11111222' 
TCOON,ioos:station:TCOON:068:1,2014-08-01T15:00:00Z,27.2970,-97.4049,0.0,1.8,124.0,2.8,'11111222,11111222,11111222' 
TCOON,ioos:station:TCOON:068:1,2014-08-01T15:06:00Z,27.2970,-97.4049,0.0,2.2,124.0,2.8,'11111222,11111222,11111222' 
TCOON,ioos:station:TCOON:068:1,2014-08-01T15:12:00Z,27.2970,-97.4049,0.0,2.2,124.0,2.8,'1111122,1111122,1111122' 
TCOON,ioos:station:TCOON:068:1,2014-08-01T15:18:00Z,27.2970,-97.4049,0.0,2.4,118.0,3.3,'11111222,11111222,11111222' 
TCOON,ioos:station:TCOON:068:1,2014-08-01T15:24:00Z,27.2970,-97.4049,0.0,2.2,119.0,3.4,'11111222,11111222,11111222' 
TCOON,ioos:station:TCOON:068:1,2014-08-01T15:30:00Z,27.2970,-97.4049,0.0,2.7,108.0,3.2,'11111222,11111222,11111222' 
TCOON,ioos:station:TCOON:068:1,2014-08-01T15:36:00Z,27.2970,-97.4049,0.0,2.7,115.0,3.9,'11111222,11111222,11111222' 
TCOON,ioos:station:TCOON:068:1,2014-08-01T15:42:00Z,27.2970,-97.4049,0.0,3.0,103.0,3.8,'11111222,11111222,11111222' 
TCOON,ioos:station:TCOON:068:1,2014-08-01T15:48:00Z,27.2970,-97.4049,0.0,2.9,125.0,4.2,'11111222,11111222,11111222' 
TCOON,ioos:station:TCOON:068:1,2014-08-01T15:54:00Z,27.2970,-97.4049,0.0,3.3,133.0,3.9,'11111222,11111222,11111222' 
TCOON,ioos:station:TCOON:068:1,2014-08-01T16:00:00Z,27.2970,-97.4049,0.0,3.2,135.0,4.0,'11111222,11111222,11111222' 
TCOON,ioos:station:TCOON:068:1,2014-08-01T16:06:00Z,27.2970,-97.4049,0.0,3.5,134.0,4.5,'11111222,11111222,11111222' 
TCOON,ioos:station:TCOON:068:1,2014-08-01T16:12:00Z,27.2970,-97.4049,0.0,3.5,134.0,4.5,'1111122,1111122,1111122' 
TCOON,ioos:station:TCOON:068:1,2014-08-01T16:18:00Z,27.2970,-97.4049,0.0,3.7,142.0,5.0,'11111222,11111222,11111222' 
TCOON,ioos:station:TCOON:068:1,2014-08-01T16:24:00Z,27.2970,-97.4049,0.0,3.0,147.0,4.8,'11111222,11111222,11111222' 
TCOON,ioos:station:TCOON:068:1,2014-08-01T16:30:00Z,27.2970,-97.4049,0.0,3.9,144.0,4.8,'11111222,11111222,11111222' 
TCOON,ioos:station:TCOON:068:1,2014-08-01T16:36:00Z,27.2970,-97.4049,0.0,4.3,140.0,5.1,'11111222,11111222,11111222' 
TCOON,ioos:station:TCOON:068:1,2014-08-01T16:42:00Z,27.2970,-97.4049,0.0,3.4,137.0,4.8,'11111222,11111222,11111222' 
TCOON,ioos:station:TCOON:068:1,2014-08-01T16:48:00Z,27.2970,-97.4049,0.0,3.3,126.0,4.2,'11111222,11111222,11111222' 
TCOON,ioos:station:TCOON:068:1,2014-08-01T16:54:00Z,27.2970,-97.4049,0.0,3.9,121.0,5.5,'11111222,11111222,11111222' 
TCOON,ioos:station:TCOON:068:1,2014-08-01T17:00:00Z,27.2970,-97.4049,0.0,4.2,121.0,5.0,'11111222,11111222,11111222' 
TCOON,ioos:station:TCOON:068:1,2014-08-01T17:06:00Z,27.2970,-97.4049,0.0,3.6,116.0,5.1,'11111222,11111222,11111222' 
TCOON,ioos:station:TCOON:068:1,2014-08-01T17:12:00Z,27.2970,-97.4049,0.0,3.6,116.0,5.1,'1111122,1111122,1111122' 
TCOON,ioos:station:TCOON:068:1,2014-08-01T17:18:00Z,27.2970,-97.4049,0.0,4.0,120.0,6.0,'11111222,11111222,11111222' 
TCOON,ioos:station:TCOON:068:1,2014-08-01T17:24:00Z,27.2970,-97.4049,0.0,4.4,119.0,5.9,'11111222,11111222,11111222' 
TCOON,ioos:station:TCOON:068:1,2014-08-01T17:30:00Z,27.2970,-97.4049,0.0,4.7,125.0,5.7,'11111222,11111222,11111222' 
TCOON,ioos:station:TCOON:068:1,2014-08-01T17:36:00Z,27.2970,-97.4049,0.0,4.9,116.0,6.1,'11111222,11111222,11111222' 
TCOON,ioos:station:TCOON:068:1,2014-08-01T17:42:00Z,27.2970,-97.4049,0.0,4.8,120.0,6.4,'11111222,11111222,11111222' 
TCOON,ioos:station:TCOON:068:1,2014-08-01T17:48:00Z,27.2970,-97.4049,0.0,5.5,117.0,6.5,'11111222,11111222,11111222' 
TCOON,ioos:station:TCOON:068:1,2014-08-01T17:54:00Z,27.2970,-97.4049,0.0,5.2,122.0,6.3,'11111222,11111222,11111222' 
TCOON,ioos:station:TCOON:068:1,2014-08-01T18:00:00Z,27.2970,-97.4049,0.0,5.4,119.0,6.7,'11111222,11111222,11111222' 
TCOON,ioos:station:TCOON:068:1,2014-08-01T18:06:00Z,27.2970,-97.4049,0.0,4.7,126.0,6.7,'11111222,11111222,11111222' 
TCOON,ioos:station:TCOON:068:1,2014-08-01T18:12:00Z,27.2970,-97.4049,0.0,4.7,126.0,6.7,'1111122,1111122,1111122' 
TCOON,ioos:station:TCOON:068:1,2014-08-01T18:18:00Z,27.2970,-97.4049,0.0,4.9,118.0,6.2,'11111222,11111222,11111222' 
TCOON,ioos:station:TCOON:068:1,2014-08-01T18:24:00Z,27.2970,-97.4049,0.0,4.8,116.0,6.5,'11111222,11111222,11111222' 
TCOON,ioos:station:TCOON:068:1,2014-08-01T18:30:00Z,27.2970,-97.4049,0.0,4.9,115.0,6.4,'11111222,11111222,11111222' 
TCOON,ioos:station:TCOON:068:1,2014-08-01T18:36:00Z,27.2970,-97.4049,0.0,4.3,126.0,6.4,'11111222,11111222,11111222' 
TCOON,ioos:station:TCOON:068:1,2014-08-01T18:42:00Z,27.2970,-97.4049,0.0,4.5,127.0,6.8,'11111222,11111222,11111222' 
TCOON,ioos:station:TCOON:068:1,2014-08-01T18:48:00Z,27.2970,-97.4049,0.0,4.9,123.0,6.4,'11111222,11111222,11111222' 
TCOON,ioos:station:TCOON:068:1,2014-08-01T18:54:00Z,27.2970,-97.4049,0.0,4.7,125.0,7.6,'11111222,11111222,11111222' 
TCOON,ioos:station:TCOON:068:1,2014-08-01T19:00:00Z,27.2970,-97.4049,0.0,4.9,121.0,6.0,'11111222,11111222,11111222' 
TCOON,ioos:station:TCOON:068:1,2014-08-01T19:06:00Z,27.2970,-97.4049,0.0,4.7,127.0,6.8,'11111222,11111222,11111222' 
TCOON,ioos:station:TCOON:068:1,2014-08-01T19:12:00Z,27.2970,-97.4049,0.0,4.7,127.0,6.8,'1111122,1111122,1111122' 
TCOON,ioos:station:TCOON:068:1,2014-08-01T19:18:00Z,27.2970,-97.4049,0.0,5.3,121.0,6.7,'11111222,11111222,11111222' 
TCOON,ioos:station:TCOON:068:1,2014-08-01T19:24:00Z,27.2970,-97.4049,0.0,5.0,122.0,6.9,'11111222,11111222,11111222' 
TCOON,ioos:station:TCOON:068:1,2014-08-01T19:30:00Z,27.2970,-97.4049,0.0,5.0,116.0,6.3,'11111222,11111222,11111222' 
TCOON,ioos:station:TCOON:068:1,2014-08-01T19:36:00Z,27.2970,-97.4049,0.0,5.6,117.0,6.7,'11111222,11111222,11111222' 
TCOON,ioos:station:TCOON:068:1,2014-08-01T19:42:00Z,27.2970,-97.4049,0.0,5.9,116.0,7.4,'11111222,11111222,11111222' 
TCOON,ioos:station:TCOON:068:1,2014-08-01T19:48:00Z,27.2970,-97.4049,0.0,5.2,115.0,6.7,'11111222,11111222,11111222' 
TCOON,ioos:station:TCOON:068:1,2014-08-01T19:54:00Z,27.2970,-97.4049,0.0,4.9,123.0,6.9,'11111222,11111222,11111222' 
TCOON,ioos:station:TCOON:068:1,2014-08-01T20:00:00Z,27.2970,-97.4049,0.0,5.2,124.0,6.1,'11111222,11111222,11111222' 
TCOON,ioos:station:TCOON:068:1,2014-08-01T20:06:00Z,27.2970,-97.4049,0.0,4.8,110.0,6.3,'11111222,11111222,11111222' 
TCOON,ioos:station:TCOON:068:1,2014-08-01T20:12:00Z,27.2970,-97.4049,0.0,4.8,110.0,6.3,'1111122,1111122,1111122' 
TCOON,ioos:station:TCOON:068:1,2014-08-01T20:18:00Z,27.2970,-97.4049,0.0,4.9,123.0,7.4,'11111222,11111222,11111222' 